• En España
  • Lista de países
  • Para 7 días
  • Temperatura del agua
  • Mapa Satelital
  • El tiempo en el mapa
  • Informadores
  • user-avatar
    Iniciar sesión

    Tiempo cada hora Pleven

    Hoy, 15 Noviembre, Jueves

    Tiempo Temperatura Precipitaciones Viento Presión Humedad
    00:00 +10°C° 0.1 mm 2 mps 751 mmHg 77%
    01:00 +10°C° 0.1 mm 2 mps 751 mmHg 78%
    02:00 +10°C° 0 mm 2 mps 751 mmHg 79%
    03:00 +9°C° 0.8 mm 2 mps 750 mmHg 81%
    04:00 +9°C° 0.8 mm 2 mps 750 mmHg 83%
    05:00 +9°C° 0.8 mm 3 mps 750 mmHg 85%
    06:00 +8°C° 0.3 mm 2 mps 751 mmHg 85%
    07:00 +8°C° 0.3 mm 2 mps 751 mmHg 85%
    08:00 +8°C° 0.3 mm 2 mps 751 mmHg 85%
    09:00 +9°C° 0.1 mm 2 mps 751 mmHg 79%
    10:00 +10°C° 0.1 mm 2 mps 751 mmHg 72%
    11:00 +10°C° 0.1 mm 2 mps 751 mmHg 66%
    12:00 +12°C° 0.1 mm 2 mps 751 mmHg 62%
    13:00 +12°C° 0.1 mm 2 mps 751 mmHg 58%
    14:00 +13°C° 0.1 mm 2 mps 751 mmHg 54%
    15:00 +12°C° 0.1 mm 1 mps 751 mmHg 57%
    16:00 +11°C° 0.1 mm 1 mps 751 mmHg 60%
    17:00 +10°C° 0.1 mm 1 mps 750 mmHg 63%
    18:00 +10°C° 0.2 mm 1 mps 751 mmHg 65%
    19:00 +9°C° 0.2 mm 1 mps 751 mmHg 67%
    20:00 +9°C° 0.2 mm 1 mps 751 mmHg 69%
    21:00 +9°C° 0.1 mm 1 mps 751 mmHg 70%
    22:00 +8°C° 0.1 mm 1 mps 752 mmHg 71%
    23:00 +8°C° 0.1 mm 1 mps 752 mmHg 72%

    Mañana, 16 Noviembre, Viernes

    Tiempo Temperatura Precipitaciones Viento Presión Humedad
    00:00 +7°C° 0.2 mm 2 mps 752 mmHg 74%
    01:00 +6°C° 0.2 mm 2 mps 752 mmHg 76%
    02:00 +6°C° 0.2 mm 2 mps 753 mmHg 79%
    03:00 +6°C° 0.2 mm 2 mps 753 mmHg 79%
    04:00 +5°C° 0.2 mm 2 mps 753 mmHg 79%
    05:00 +5°C° 0.2 mm 2 mps 753 mmHg 80%
    06:00 +5°C° 0.1 mm 2 mps 753 mmHg 80%
    07:00 +5°C° 0.1 mm 2 mps 753 mmHg 79%
    08:00 +5°C° 0.1 mm 2 mps 754 mmHg 79%
    09:00 +6°C° 0 mm 2 mps 754 mmHg 74%
    10:00 +6°C° 0 mm 2 mps 754 mmHg 68%
    11:00 +7°C° 0 mm 3 mps 754 mmHg 62%
    12:00 +7°C° 0 mm 3 mps 754 mmHg 62%
    13:00 +8°C° 0 mm 3 mps 754 mmHg 62%
    14:00 +8°C° 0 mm 3 mps 754 mmHg 61%
    15:00 +7°C° 0 mm 3 mps 754 mmHg 64%
    16:00 +5°C° 0 mm 3 mps 754 mmHg 67%
    17:00 +6°C° 0 mm 2 mps 754 mmHg 70%
    18:00 +4°C° 0 mm 3 mps 754 mmHg 73%
    19:00 +3°C° 0 mm 3 mps 755 mmHg 76%
    20:00 +3°C° 0 mm 3 mps 755 mmHg 78%
    21:00 +3°C° 0 mm 3 mps 755 mmHg 78%
    22:00 +2°C° 0 mm 3 mps 756 mmHg 78%
    23:00 +2°C° 0 mm 3 mps 756 mmHg 77%

    Pasado mañana, 17 Noviembre, Sábado

    Tiempo Temperatura Precipitaciones Viento Presión Humedad
    00:00 +2°C° 0 mm 3 mps 756 mmHg 79%
    01:00 +2°C° 0 mm 2 mps 756 mmHg 80%
    02:00 +2°C° 0 mm 2 mps 756 mmHg 81%
    03:00 +1°C° 0 mm 2 mps 756 mmHg 82%
    04:00 +1°C° 0 mm 2 mps 756 mmHg 83%
    05:00 +1°C° 0 mm 2 mps 756 mmHg 84%
    06:00 +1°C° 0 mm 2 mps 756 mmHg 83%
    07:00 +1°C° 0 mm 2 mps 756 mmHg 83%
    08:00 +1°C° 0 mm 2 mps 757 mmHg 82%
    09:00 +1°C° 0 mm 3 mps 756 mmHg 78%
    10:00 +2°C° 0 mm 3 mps 756 mmHg 74%
    11:00 +3°C° 0 mm 3 mps 756 mmHg 69%
    12:00 +3°C° 0 mm 3 mps 756 mmHg 69%
    13:00 +3°C° 0 mm 3 mps 755 mmHg 69%
    14:00 +3°C° 0 mm 3 mps 755 mmHg 69%
    15:00 +3°C° 0 mm 3 mps 755 mmHg 72%
    16:00 +2°C° 0 mm 3 mps 755 mmHg 76%
    17:00 +2°C° 0 mm 3 mps 755 mmHg 79%
    18:00 +2°C° 0 mm 3 mps 755 mmHg 81%
    19:00 +1°C° 0 mm 3 mps 756 mmHg 83%
    20:00 +1°C° 0 mm 3 mps 756 mmHg 85%
    21:00 +1°C° 0 mm 3 mps 756 mmHg 84%
    22:00 +1°C° 0 mm 3 mps 756 mmHg 84%
    23:00 +1°C° 0 mm 3 mps 756 mmHg 84%

    18 Noviembre, Domingo

    Tiempo Temperatura Precipitaciones Viento Presión Humedad
    00:00 +1°C° 0 mm 3 mps 755 mmHg 83%
    01:00 +1°C° 0 mm 3 mps 755 mmHg 82%
    02:00 +2°C° 0 mm 2 mps 755 mmHg 80%
    03:00 +1°C° 0 mm 2 mps 755 mmHg 80%
    04:00 +1°C° 0 mm 2 mps 755 mmHg 80%
    05:00 +1°C° 0 mm 2 mps 754 mmHg 80%
    06:00 +1°C° 0 mm 2 mps 754 mmHg 79%
    07:00 +2°C° 0 mm 1 mps 754 mmHg 78%
    08:00 +2°C° 0 mm 1 mps 754 mmHg 77%
    09:00 +2°C° 0 mm 2 mps 754 mmHg 71%
    10:00 +3°C° 0 mm 2 mps 753 mmHg 66%
    11:00 +4°C° 0 mm 2 mps 753 mmHg 61%
    12:00 +5°C° 0 mm 2 mps 752 mmHg 59%
    13:00 +5°C° 0 mm 2 mps 752 mmHg 57%
    14:00 +6°C° 0 mm 2 mps 751 mmHg 56%
    15:00 +5°C° 0 mm 2 mps 750 mmHg 59%
    16:00 +5°C° 0 mm 2 mps 750 mmHg 62%
    17:00 +5°C° 0 mm 1 mps 749 mmHg 66%
    18:00 +4°C° 0 mm 1 mps 749 mmHg 68%
    19:00 +4°C° 0 mm 1 mps 749 mmHg 70%
    20:00 +4°C° 0 mm 1 mps 749 mmHg 72%
    21:00 +3°C° 0 mm 1 mps 748 mmHg 73%
    22:00 +3°C° 0 mm 1 mps 748 mmHg 73%
    23:00 +3°C° 0 mm 1 mps 748 mmHg 74%

    19 Noviembre, Lunes

    Tiempo Temperatura Precipitaciones Viento Presión Humedad
    00:00 +3°C° 0 mm 1 mps 747 mmHg 74%
    01:00 +3°C° 0 mm 1 mps 747 mmHg 74%
    02:00 +3°C° 0 mm 1 mps 747 mmHg 74%
    03:00 +3°C° 0 mm 1 mps 746 mmHg 74%
    04:00 +3°C° 0 mm 1 mps 746 mmHg 74%
    05:00 +3°C° 0 mm 1 mps 746 mmHg 74%
    06:00 +3°C° 0 mm 1 mps 745 mmHg 74%
    07:00 +3°C° 0 mm 1 mps 745 mmHg 74%
    08:00 +3°C° 0 mm 1 mps 745 mmHg 73%
    09:00 +3°C° 0 mm 2 mps 745 mmHg 69%
    10:00 +5°C° 0 mm 2 mps 745 mmHg 64%
    11:00 +6°C° 0 mm 2 mps 746 mmHg 59%
    12:00 +6°C° 0 mm 2 mps 745 mmHg 59%
    13:00 +7°C° 0 mm 2 mps 745 mmHg 59%
    14:00 +7°C° 0 mm 3 mps 745 mmHg 59%
    15:00 +7°C° 0 mm 2 mps 745 mmHg 64%
    16:00 +6°C° 0 mm 2 mps 745 mmHg 69%
    17:00 +5°C° 0 mm 2 mps 745 mmHg 75%
    18:00 +5°C° 0 mm 2 mps 745 mmHg 78%
    19:00 +5°C° 0 mm 2 mps 745 mmHg 81%
    20:00 +5°C° 0 mm 2 mps 745 mmHg 84%
    21:00 +5°C° 0 mm 1 mps 745 mmHg 86%
    22:00 +5°C° 0 mm 1 mps 746 mmHg 87%
    23:00 +5°C° 0 mm 1 mps 746 mmHg 89%

    20 Noviembre, Martes

    Tiempo Temperatura Precipitaciones Viento Presión Humedad
    00:00 +5°C° 0 mm 1 mps 746 mmHg 90%
    01:00 +4°C° 0 mm 1 mps 746 mmHg 91%
    02:00 +4°C° 0 mm 1 mps 746 mmHg 92%
    03:00 +4°C° 0 mm 1 mps 746 mmHg 93%
    04:00 +4°C° 0 mm 1 mps 746 mmHg 94%
    05:00 +4°C° 0 mm 1 mps 746 mmHg 94%
    06:00 +5°C° 0 mm 1 mps 746 mmHg 94%
    07:00 +5°C° 0 mm 1 mps 745 mmHg 94%
    08:00 +5°C° 0 mm 2 mps 745 mmHg 94%
    09:00 +6°C° 0 mm 2 mps 745 mmHg 87%
    10:00 +8°C° 0 mm 3 mps 745 mmHg 81%
    11:00 +10°C° 0 mm 3 mps 745 mmHg 75%
    12:00 +10°C° 0.4 mm 3 mps 744 mmHg 76%
    13:00 +11°C° 0.4 mm 3 mps 744 mmHg 77%
    14:00 +12°C° 0.4 mm 2 mps 743 mmHg 79%
    15:00 +12°C° 0.6 mm 2 mps 743 mmHg 82%
    16:00 +10°C° 0.6 mm 2 mps 743 mmHg 85%
    17:00 +10°C° 0.6 mm 3 mps 743 mmHg 88%
    18:00 +10°C° 0.3 mm 3 mps 743 mmHg 89%
    19:00 +10°C° 0.3 mm 3 mps 742 mmHg 89%
    20:00 +10°C° 0.3 mm 3 mps 742 mmHg 89%
    21:00 +10°C° 0.4 mm 3 mps 742 mmHg 89%
    22:00 +10°C° 0.4 mm 2 mps 741 mmHg 90%
    23:00 +12°C° 0.4 mm 2 mps 741 mmHg 90%
    Mostrar más